Location: Rumah Dana
(3.1167°N, 113.0167°E)
Time: 13:23:09
(UTC+00:00)

Meteor 1-24 Rocket - Pass Details

Date: 03 August 2024
Orbit: 790 x 926 km, 81.3° (Epoch: 07 September)

Event Time Altitude Azimuth Distance (km) Brightness Sun altitude
Rises 21:27:59 0° 342° (NNW) 3,523 6.9 -14.8°
Reaches altitude 10° 21:30:33 10° 335° (NNW) 2,597 6.2 -14.2°
Maximum altitude 21:36:08 42° 266° (W) 1,285 4.2 -12.9°
Drops below altitude 10° 21:41:46 10° 196° (SSW) 2,623 5.9 -11.5°
Sets 21:44:23 0° 189° (S) 3,563 6.7 -10.9°
